Wind_Speed
10 10 11 12 14 16 16 17 16 17 18 18 18 19 20 21 21 21 22 22 24 24 24 24 24 25 26 26 26 26 26 26 25 25 24 23 22 22 21 22 22 21 20 20 20 20 20 20 20
6 8 9 10 12 14 15 15 16 17 17 17 17 18 20 20 20 20 20 20 21 23 23 23 25 26 27 28 28 29 29 28 28 27 26 25 24 24 24 24 25 25 24 23 23 23 23 24 24
6 6 6 6 7 9 10 11 13 15 15 14 14 15 16 18 19 20 20 19 20 21 22 23 25 27 28 29 30 30 30 29 29 29 28 27 26 26 27 27 27 27 26 26 26 26 26 27 27
5 4 3 3 3 3 5 7 10 12 11 11 11 11 12 14 16 17 19 20 21 22 24 25 26 27 28 29 30 30 31 30 30 30 30 30 29 29 30 30 29 29 29 29 28 28 29 29 30
5 5 4 4 4 5 5 5 5 6 7 9 10 10 10 11 13 16 18 20 22 23 24 26 27 27 28 30 31 32 32 32 33 33 33 33 33 32 32 33 32 32 31 31 31 30 30 31 31
6 6 6 6 6 7 7 7 7 7 8 11 13 14 14 15 16 17 20 22 24 26 28 29 30 30 31 32 33 35 35 36 37 37 37 37 37 36 36 35 35 34 34 33 33 32 31 31 32
6 6 6 6 7 9 12 13 13 13 13 14 16 18 19 20 21 22 24 26 28 30 32 33 35 36 36 37 38 38 39 39 40 40 41 41 41 40 40 39 38 37 36 36 35 35 34 33 32
7 8 8 9 10 11 12 13 14 15 16 17 18 20 21 23 25 26 27 28 29 30 32 34 36 37 38 38 39 39 39 39 40 40 41 42 42 42 42 42 41 40 39 39 38 38 37 35 34
8 8 9 11 12 12 12 12 12 13 15 16 18 19 21 24 26 28 29 30 30 31 31 32 34 35 37 38 38 38 39 38 38 39 39 40 41 42 43 44 43 42 42 41 42 41 41 39 38
10 10 11 11 11 11 12 12 12 13 14 16 19 21 23 25 27 29 30 31 32 32 33 33 35 36 37 39 39 39 39 40 40 40 40 40 40 40 41 43 44 44 44 43 43 43 43 42 41
11 11 12 12 11 11 12 13 14 15 16 17 19 21 22 24 26 28 29 30 31 32 33 34 35 37 39 40 42 43 43 43 43 43 43 43 43 42 42 42 42 43 44 45 44 43 43 43 43
10 11 11 11 11 11 11 11 12 14 15 16 18 20 22 24 26 28 30 32 33 34 35 36 37 38 39 41 42 44 45 46 47 47 47 47 47 47 46 45 44 44 45 44 44 44 44 44 44
9 10 9 9 9 8 8 9 11 12 15 17 20 23 25 28 30 32 34 36 37 39 40 41 42 43 44 44 45 45 46 47 48 49 50 50 51 51 51 50 49 47 47 46 45 45 46 46 46
8 8 7 7 7 8 9 11 13 16 19 21 24 26 29 31 34 36 38 40 42 44 46 47 48 49 50 51 51 52 52 52 52 52 52 52 52 52 52 53 52 52 51 50 49 48 48 49 49
7 7 7 8 10 12 13 15 18 20 22 24 26 29 32 35 38 40 43 45 47 49 51 53 54 55 56 56 56 57 58 58 58 57 57 56 56 55 54 54 54 54 54 54 53 52 51 51 51
7 8 10 12 14 16 17 18 21 24 26 28 31 34 37 40 42 45 48 50 52 54 56 58 60 61 62 63 63 63 63 63 62 62 62 62 61 61 61 60 59 58 57 57 56 56 55 55 54
7 10 12 14 16 18 21 23 26 29 32 35 38 41 44 47 50 53 55 57 59 60 61 63 64 66 67 68 68 67 66 66 65 65 64 64 64 64 64 64 63 63 62 61 59 58 58 58 58
9 11 13 15 17 20 24 28 32 36 39 42 46 49 53 56 59 61 63 65 67 68 68 68 69 70 71 72 73 72 70 69 68 67 67 67 66 66 67 66 66 66 65 64 64 62 61 61 61
12 13 14 16 19 23 28 33 37 41 44 48 51 55 59 62 65 68 71 74 76 77 77 76 75 75 75 76 77 76 75 74 73 72 72 72 72 72 72 71 71 70 69 68 67 67 65 64 64
14 15 17 19 22 27 31 36 41 44 48 52 56 60 63 67 71 74 78 81 83 85 86 85 83 81 79 79 80 81 81 81 80 79 78 77 77 77 77 76 76 75 75 73 72 71 70 68 66
15 17 21 25 27 30 36 42 46 50 54 58 61 64 68 72 77 81 84 86 88 89 90 91 90 89 86 84 84 84 85 86 86 86 86 85 84 83 83 82 82 81 80 79 78 77 75 73 70
18 21 24 29 32 36 42 48 51 55 59 62 65 69 74 79 83 85 87 87 87 87 87 85 84 83 83 83 84 84 85 85 87 87 87 88 89 89 88 88 88 87 86 84 83 82 81 79 76
21 25 28 32 37 41 46 52 56 59 63 67 71 75 79 82 84 85 84 83 81 79 75 71 68 66 65 64 65 66 68 71 73 75 77 79 81 84 86 88 89 89 89 88 87 86 85 84 82
25 29 33 36 40 45 50 55 60 63 68 72 76 78 80 81 81 80 78 74 69 63 59 57 55 54 52 51 50 48 46 45 44 46 49 54 59 64 69 74 79 82 85 87 88 89 88 88 87
29 32 36 40 44 48 53 58 63 68 73 76 77 79 79 77 75 72 67 60 55 53 51 50 49 48 47 45 43 41 38 34 30 27 26 29 33 37 42 47 53 60 66 72 76 81 84 86 87
33 36 38 42 46 51 56 60 66 72 74 77 78 77 74 71 68 63 58 53 50 48 47 47 47 46 45 42 40 39 36 32 27 22 20 20 22 26 30 34 38 42 48 54 60 66 72 77 81
35 38 40 45 51 56 59 63 70 73 75 77 76 73 68 64 61 57 53 49 48 46 46 46 47 46 45 43 40 37 35 32 28 25 22 21 22 23 25 28 31 34 37 42 47 53 59 66 72
36 39 45 50 55 59 62 68 72 74 76 76 73 68 62 58 55 53 50 48 46 45 46 47 48 48 46 44 41 38 35 32 29 26 24 24 24 25 27 28 30 32 34 36 39 43 48 55 61
38 42 48 53 57 62 67 70 73 75 76 75 70 63 57 53 52 51 50 49 47 47 48 49 50 50 48 46 44 41 38 35 33 31 29 28 28 29 30 31 32 33 34 35 36 38 41 46 50
39 45 51 55 59 63 67 72 74 76 75 72 66 58 52 51 52 52 51 50 50 50 52 53 53 53 52 50 48 45 42 40 38 37 35 34 33 33 33 34 34 35 35 34 34 35 36 37 39
Wind_Direction
276 276 274 268 262 256 252 246 239 239 239 241 246 251 256 259 260 258 251 250 248 250 251 255 258 260 262 264 267 270 272 274 277 279 279 279 278 273 266 260 256 252 251 251 253 253 254 254 253
298 294 285 276 266 266 259 253 245 248 249 251 253 255 258 263 265 264 261 258 256 256 257 261 266 267 267 268 270 271 272 273 275 276 275 275 275 271 265 259 254 250 248 249 251 254 256 256 255
333 317 306 304 293 282 278 269 268 266 264 261 257 257 259 262 266 269 270 271 268 267 266 267 269 269 269 269 270 270 271 272 273 273 272 272 271 268 264 259 255 251 249 249 251 253 256 256 256
339 345 343 342 16 352 315 300 292 283 273 271 265 259 260 268 277 282 284 282 279 275 274 273 271 271 270 270 270 270 271 271 271 271 270 269 267 265 262 259 257 255 254 253 252 252 254 255 255
346 353 15 30 38 9 359 338 318 297 283 284 284 280 278 280 279 281 283 284 284 282 280 279 277 276 276 275 275 274 273 273 272 271 270 268 265 263 260 259 258 258 257 256 255 252 251 252 251
6 0 0 8 359 345 335 326 315 308 302 303 304 305 302 295 288 283 282 281 281 281 281 279 278 278 276 275 275 275 274 273 272 272 270 268 265 263 260 259 258 257 257 256 255 254 251 249 249
7 1 354 346 334 327 328 327 326 326 318 311 307 304 301 296 291 286 282 280 279 279 279 279 279 277 276 274 273 272 272 271 270 269 268 266 264 262 260 258 257 255 253 252 252 252 251 249 248
353 349 345 339 335 330 327 325 323 320 315 311 306 302 300 298 296 295 293 291 289 288 286 285 285 284 282 279 276 274 272 271 270 268 266 265 263 262 260 258 256 253 250 249 248 248 248 247 246
5 358 354 353 352 347 343 338 331 325 317 312 308 305 303 302 302 302 302 300 298 295 293 290 289 287 286 284 281 278 274 272 269 268 266 265 264 263 261 259 257 254 251 249 247 246 246 246 245
25 16 9 8 4 355 346 340 332 322 314 309 307 306 305 305 306 305 305 304 301 298 294 290 287 286 285 284 282 280 278 275 272 269 267 266 265 264 262 261 260 258 255 251 248 246 246 245 244
18 10 6 4 358 351 342 334 329 325 322 318 314 313 311 310 310 309 308 306 304 301 298 294 291 287 284 282 281 279 278 276 275 274 272 269 267 265 264 262 261 260 258 254 250 248 246 244 243
7 3 2 358 355 352 347 341 336 333 330 328 324 320 318 316 313 310 307 304 302 299 296 294 291 288 285 282 279 277 276 274 273 272 271 270 269 268 266 264 262 261 259 257 254 250 247 245 243
8 8 10 8 13 11 0 351 339 332 328 325 322 319 317 314 310 308 305 303 300 297 294 291 288 285 283 280 278 275 274 272 271 269 268 267 266 265 266 265 263 261 259 257 255 253 250 248 245
27 29 33 30 21 8 355 341 333 329 325 322 319 316 313 311 308 306 305 303 300 296 293 290 287 284 281 279 277 275 273 271 269 267 266 265 263 262 261 261 261 260 258 256 254 254 253 250 248
43 31 25 16 4 355 346 336 332 331 328 324 321 318 315 312 309 306 304 302 299 297 294 291 288 285 282 280 277 275 273 271 269 267 264 263 261 260 259 258 257 257 257 256 254 252 251 251 250
28 12 4 358 353 348 345 343 341 337 331 327 323 319 316 313 309 306 304 301 298 295 292 290 288 285 283 281 279 276 274 271 269 268 266 263 261 260 258 257 256 256 255 255 254 253 251 250 249
9 357 353 352 351 348 345 344 341 337 331 326 322 318 315 312 309 306 304 301 298 295 292 289 286 283 281 279 278 277 274 271 269 267 265 263 262 261 260 259 258 257 255 254 253 252 251 250 249
350 346 347 348 346 344 341 338 336 333 329 325 321 317 314 311 309 307 304 302 300 298 295 291 288 283 280 277 275 274 272 270 268 266 264 262 261 260 259 258 257 257 256 255 253 251 251 250 249
336 336 338 339 339 337 335 333 332 328 325 321 318 314 311 309 307 305 303 302 300 299 297 294 290 285 280 276 273 270 269 268 267 266 265 263 262 260 259 258 257 256 256 255 255 254 251 250 250
329 329 329 329 331 330 328 326 325 323 320 317 313 310 308 307 305 304 303 301 300 298 295 293 289 285 281 276 272 269 266 264 263 262 262 263 263 262 260 259 258 257 256 255 255 255 253 251 251
332 330 326 324 323 323 322 322 322 320 318 315 313 310 308 306 304 304 303 302 299 297 295 294 293 292 289 285 280 275 270 267 265 262 260 259 259 259 259 258 258 257 257 256 256 257 255 253 251
330 325 321 319 319 321 321 319 319 320 318 315 314 312 311 310 309 308 306 304 302 300 299 299 300 299 298 296 293 288 282 276 272 268 265 264 262 260 259 258 258 258 257 256 256 256 256 255 254
323 322 320 319 318 319 319 319 320 320 318 316 315 315 314 313 312 311 309 308 306 306 307 308 309 308 307 306 303 299 294 288 282 277 271 267 266 264 262 260 260 260 259 259 257 256 255 254 254
322 322 321 319 317 319 321 321 321 320 319 318 318 318 318 317 315 314 313 312 312 314 315 316 317 317 316 315 314 311 307 300 292 283 275 270 266 264 264 263 262 261 261 261 260 258 256 254 253
323 323 320 319 321 323 322 321 321 321 320 320 321 321 321 320 318 317 316 317 318 320 321 323 324 325 325 324 323 321 319 314 306 292 277 267 261 260 260 262 262 261 261 260 259 257 255 253 252
321 322 323 324 324 323 323 323 322 321 321 323 323 324 323 322 322 322 322 322 323 325 326 327 329 330 330 330 328 327 325 322 315 305 290 277 267 263 262 263 264 264 262 260 257 254 252 250 248
322 324 325 325 325 325 324 324 322 323 324 325 326 326 325 326 327 327 326 324 325 327 328 330 331 332 332 331 329 328 325 320 315 306 297 289 282 277 275 274 272 272 271 269 265 260 255 250 246
326 328 328 329 327 325 325 325 324 325 326 328 328 328 328 330 331 330 328 326 325 326 327 328 329 330 329 328 326 325 322 319 314 306 297 292 289 286 284 283 282 280 280 278 274 266 260 254 248
330 331 330 329 328 326 325 326 325 326 329 330 329 330 331 333 335 334 331 329 326 324 323 323 324 324 323 322 321 318 315 312 309 303 297 291 286 284 285 285 286 286 286 285 282 276 266 257 248
332 333 332 331 329 327 325 326 327 329 331 330 330 330 331 334 335 335 333 330 327 323 320 318 317 317 316 315 314 312 309 305 302 298 294 290 286 284 283 284 284 285 285 286 285 280 271 258 242
Height
5840 5840 5841 5843 5844 5843 5843 5843 5844 5844 5844 5845 5845 5845 5846 5846 5848 5851 5850 5849 5849 5849 5849 5850 5850 5849 5849 5849 5848 5848 5848 5847 5847 5847 5847 5846 5847 5847 5847 5847 5847 5848 5849 5849 5850 5851 5852 5852 5853
5839 5840 5841 5842 5842 5842 5843 5843 5843 5843 5844 5844 5844 5844 5844 5844 5844 5845 5845 5845 5845 5846 5846 5846 5846 5846 5845 5845 5844 5844 5843 5843 5842 5842 5842 5841 5841 5841 5842 5842 5842 5843 5843 5844 5845 5846 5847 5848 5848
5839 5840 5842 5841 5841 5842 5843 5843 5842 5842 5842 5842 5843 5843 5843 5842 5842 5842 5842 5842 5842 5842 5842 5842 5842 5841 5841 5840 5839 5839 5838 5837 5837 5836 5836 5836 5835 5836 5836 5836 5836 5837 5837 5838 5839 5840 5841 5842 5843
5840 5841 5842 5841 5841 5842 5842 5842 5842 5842 5841 5841 5842 5842 5842 5842 5842 5842 5841 5840 5840 5839 5839 5838 5837 5837 5836 5835 5834 5833 5832 5832 5831 5831 5830 5830 5830 5830 5830 5830 5830 5830 5831 5831 5832 5833 5834 5836 5837
5841 5842 5842 5840 5840 5841 5841 5841 5842 5842 5841 5840 5841 5841 5842 5842 5841 5840 5839 5838 5837 5836 5835 5834 5833 5832 5831 5830 5829 5828 5827 5826 5825 5824 5823 5823 5823 5823 5823 5823 5824 5824 5824 5825 5825 5826 5827 5829 5830
5842 5842 5841 5840 5841 5841 5841 5841 5842 5842 5841 5840 5840 5840 5839 5839 5838 5837 5836 5834 5832 5831 5829 5828 5826 5825 5824 5823 5822 5821 5819 5818 5817 5816 5816 5816 5815 5815 5815 5816 5816 5816 5817 5817 5818 5819 5820 5821 5823
5843 5842 5841 5841 5841 5841 5842 5842 5841 5841 5841 5840 5839 5837 5835 5834 5833 5832 5831 5829 5827 5825 5823 5821 5819 5817 5816 5814 5813 5811 5810 5809 5807 5807 5806 5806 5806 5807 5807 5807 5808 5808 5809 5809 5810 5811 5812 5814 5815
5841 5842 5841 5841 5842 5842 5842 5841 5840 5839 5838 5837 5835 5833 5831 5829 5828 5826 5825 5823 5822 5819 5817 5815 5812 5810 5808 5806 5804 5802 5800 5799 5798 5797 5797 5796 5796 5797 5797 5798 5798 5799 5800 5800 5801 5802 5803 5805 5807
5841 5842 5841 5841 5841 5841 5840 5840 5839 5837 5835 5834 5832 5829 5828 5826 5824 5822 5820 5818 5816 5813 5811 5808 5805 5802 5799 5797 5795 5793 5791 5790 5789 5788 5787 5787 5787 5787 5788 5788 5789 5789 5790 5791 5792 5793 5794 5796 5798
5842 5842 5841 5842 5841 5840 5839 5838 5837 5836 5834 5832 5830 5828 5826 5824 5821 5818 5815 5813 5810 5808 5805 5802 5798 5795 5792 5789 5786 5784 5782 5781 5779 5778 5778 5777 5777 5777 5778 5778 5779 5779 5780 5781 5782 5783 5785 5787 5789
5842 5841 5841 5841 5840 5839 5837 5835 5834 5832 5830 5828 5826 5824 5822 5819 5816 5813 5810 5806 5803 5800 5797 5794 5790 5787 5784 5781 5778 5775 5773 5771 5769 5769 5768 5767 5767 5767 5767 5768 5768 5769 5769 5770 5772 5773 5775 5777 5780
5842 5841 5840 5840 5838 5837 5835 5833 5831 5828 5827 5824 5822 5820 5817 5814 5811 5808 5804 5800 5796 5792 5789 5785 5781 5778 5774 5771 5768 5765 5763 5761 5759 5757 5757 5756 5756 5757 5757 5758 5758 5758 5759 5760 5761 5763 5765 5767 5769
5841 5840 5839 5838 5837 5835 5833 5831 5829 5827 5825 5823 5821 5818 5815 5812 5808 5804 5799 5795 5790 5785 5780 5775 5771 5767 5763 5759 5756 5753 5751 5749 5747 5745 5744 5744 5744 5744 5745 5746 5746 5747 5748 5749 5751 5753 5755 5757 5759
5841 5840 5839 5838 5836 5834 5833 5832 5830 5827 5826 5824 5821 5817 5813 5809 5804 5798 5793 5787 5782 5777 5771 5766 5761 5756 5752 5747 5744 5740 5738 5735 5733 5732 5730 5730 5730 5730 5731 5732 5733 5734 5735 5737 5739 5741 5744 5746 5749
5842 5841 5840 5839 5837 5836 5835 5832 5830 5828 5825 5821 5817 5813 5808 5803 5797 5791 5785 5779 5773 5767 5761 5755 5750 5744 5739 5734 5730 5726 5723 5720 5718 5716 5715 5714 5714 5715 5716 5717 5718 5720 5721 5724 5726 5729 5731 5734 5736
5843 5842 5841 5839 5837 5836 5835 5832 5829 5826 5822 5818 5813 5808 5802 5796 5790 5783 5776 5769 5763 5756 5749 5742 5736 5731 5725 5720 5715 5711 5707 5704 5701 5699 5698 5697 5697 5698 5699 5700 5702 5704 5706 5709 5712 5715 5718 5721 5723
5843 5842 5840 5839 5837 5834 5832 5828 5825 5822 5817 5812 5807 5801 5794 5787 5780 5772 5764 5757 5749 5742 5735 5727 5720 5714 5709 5703 5698 5694 5690 5686 5683 5681 5680 5679 5679 5679 5680 5682 5684 5686 5690 5693 5695 5699 5702 5706 5709
5844 5842 5840 5838 5835 5832 5828 5824 5820 5816 5811 5805 5799 5792 5784 5776 5768 5759 5750 5741 5732 5724 5716 5709 5701 5694 5689 5683 5678 5673 5670 5667 5664 5662 5660 5659 5660 5660 5661 5662 5664 5667 5671 5674 5677 5681 5685 5690 5693
5844 5841 5839 5836 5833 5829 5825 5820 5816 5811 5805 5798 5791 5782 5774 5765 5755 5745 5735 5725 5714 5704 5695 5686 5678 5670 5663 5658 5653 5650 5647 5644 5642 5640 5638 5637 5638 5639 5640 5642 5645 5647 5651 5655 5658 5662 5666 5672 5675
5843 5840 5836 5833 5830 5826 5821 5816 5811 5805 5798 5790 5781 5772 5763 5753 5742 5730 5719 5707 5695 5683 5671 5660 5649 5641 5634 5628 5624 5621 5619 5617 5616 5616 5615 5614 5614 5615 5618 5620 5624 5627 5631 5635 5638 5642 5647 5653 5656
5840 5837 5834 5830 5826 5822 5816 5810 5804 5797 5789 5780 5770 5760 5749 5737 5726 5714 5700 5687 5673 5658 5644 5631 5619 5610 5602 5597 5593 5590 5588 5587 5586 5586 5588 5588 5589 5591 5594 5597 5601 5605 5609 5614 5617 5620 5625 5632 5637
5838 5835 5831 5826 5821 5816 5810 5803 5797 5789 5779 5769 5758 5746 5734 5721 5707 5692 5678 5663 5649 5634 5621 5608 5596 5586 5576 5567 5561 5556 5554 5554 5554 5556 5559 5561 5562 5565 5568 5573 5577 5581 5586 5590 5595 5599 5603 5609 5616
5835 5832 5827 5822 5816 5810 5803 5795 5789 5780 5768 5757 5745 5732 5718 5703 5688 5672 5656 5641 5626 5613 5601 5591 5580 5569 5559 5549 5539 5532 5526 5523 5522 5524 5529 5534 5537 5539 5543 5548 5553 5557 5562 5566 5571 5576 5581 5587 5594
5832 5829 5823 5818 5811 5805 5796 5787 5778 5767 5755 5743 5730 5716 5701 5686 5670 5654 5638 5623 5610 5599 5588 5578 5569 5558 5548 5537 5528 5519 5511 5506 5502 5501 5503 5508 5513 5516 5519 5524 5529 5534 5537 5541 5545 5550 5556 5563 5570
5830 5825 5820 5813 5805 5798 5789 5778 5769 5756 5742 5729 5715 5701 5685 5669 5653 5638 5624 5612 5601 5590 5580 5570 5560 5550 5540 5530 5520 5511 5504 5498 5493 5490 5490 5492 5495 5499 5501 5505 5508 5512 5514 5517 5519 5524 5530 5536 5544
5825 5820 5814 5806 5799 5792 5782 5771 5760 5746 5731 5717 5702 5686 5670 5654 5639 5624 5611 5601 5591 5581 5572 5562 5552 5543 5533 5524 5516 5507 5500 5494 5489 5486 5485 5485 5487 5489 5490 5492 5494 5495 5495 5496 5497 5499 5504 5509 5517
5820 5813 5807 5800 5792 5783 5773 5762 5749 5734 5720 5705 5690 5674 5657 5643 5628 5615 5603 5592 5583 5574 5564 5554 5545 5536 5527 5519 5512 5504 5497 5491 5486 5483 5481 5480 5479 5480 5481 5482 5482 5482 5481 5480 5479 5480 5481 5484 5491
5815 5808 5801 5792 5782 5772 5762 5751 5737 5722 5709 5694 5678 5663 5648 5634 5620 5607 5595 5585 5575 5567 5557 5548 5539 5530 5522 5514 5506 5500 5493 5488 5483 5479 5476 5474 5472 5471 5471 5471 5470 5469 5468 5465 5463 5462 5462 5464 5469
5810 5803 5794 5785 5773 5761 5749 5743 5726 5711 5696 5681 5666 5651 5637 5625 5612 5600 5588 5577 5568 5559 5550 5541 5532 5524 5516 5508 5500 5494 5488 5482 5477 5473 5470 5467 5465 5463 5461 5459 5458 5457 5455 5452 5449 5447 5445 5446 5450
5805 5797 5788 5779 5767 5754 5741 5732 5713 5698 5683 5667 5653 5640 5628 5616 5604 5593 5582 5571 5561 5552 5543 5533 5524 5515 5506 5498 5491 5484 5479 5473 5468 5464 5460 5457 5454 5452 5449 5447 5446 5444 5442 5440 5436 5433 5431 5431 5435